Location: Oberkirch
(48.5323°N, 8.0787°E)
Time: 01:53:18
(UTC+00:00)

Courier 1B - All Passes

Search period start: 07 February 2026 00:00
Search period end: 17 February 2026 00:00
Orbit: 962 x 1208 km, 28.3° (Epoch: 6 February)

Date Brightness Start Highest point End Pass type
(mag) Time Alt. Az. Time Alt. Az. Time Alt. Az.
7 Feb - 00:04:41 10° SSW 00:07:55 13° S 00:11:05 10° SE night (unlit)
7 Feb - 01:56:48 10° SW 02:00:39 15° S 02:04:25 10° SSE night (unlit)
7 Feb - 23:11:51 10° S 23:14:16 12° SSE 23:16:39 10° SSE night (unlit)
8 Feb - 01:02:56 10° SSW 01:07:02 15° S 01:11:02 10° SSE night (unlit)
8 Feb - 02:57:26 10° SSW 02:59:43 12° SSW 03:01:57 10° S visible
9 Feb - 00:09:16 10° SSW 00:13:22 15° S 00:17:24 10° SE night (unlit)
9 Feb - 02:02:45 10° SW 02:06:07 13° SSW 02:09:26 10° SSE night (unlit)
9 Feb - 23:15:49 10° SSW 23:19:42 14° S 23:23:33 10° SE night (unlit)
10 Feb - 01:08:31 10° SW 01:12:29 15° S 01:16:24 10° SSE night (unlit)
10 Feb - 22:22:41 10° SSW 22:26:03 13° SSE 22:29:24 10° SE night (unlit)
11 Feb - 00:14:33 10° SW 00:18:50 16° S 00:23:03 10° SSE night (unlit)
11 Feb - 02:09:56 10° SSW 02:11:32 11° SSW 02:13:08 10° S night (unlit)
11 Feb - 21:30:05 10° S 21:32:24 11° SSE 21:34:43 10° SE night (unlit)
11 Feb - 23:20:48 10° SSW 23:25:10 16° S 23:29:29 10° SE night (unlit)
12 Feb - 01:14:48 10° SW 01:17:56 13° SSW 01:21:02 10° S night (unlit)
12 Feb - 22:27:16 10° SSW 22:31:29 15° S 22:35:41 10° SE night (unlit)
13 Feb - 00:20:25 10° SW 00:24:17 14° S 00:28:08 10° SSE night (unlit)
13 Feb - 21:33:59 10° SSW 21:37:49 14° S 21:41:39 10° SE night (unlit)
13 Feb - 23:26:22 10° SW 23:30:37 16° S 23:34:52 10° SSE night (unlit)
14 Feb - 20:41:05 10° S 20:44:10 13° SSE 20:47:16 10° SE visible
14 Feb - 22:32:33 10° SW 22:36:57 16° S 22:41:20 10° SSE night (unlit)
15 Feb - 00:27:10 10° SW 00:29:42 12° SSW 00:32:13 10° S night (unlit)
15 Feb - 19:49:03 10° S 19:50:33 11° SSE 19:52:03 10° SSE visible
15 Feb - 21:38:58 10° SSW 21:43:15 16° S 21:47:36 10° SE night (unlit)
15 Feb - 23:32:33 10° SW 23:36:03 14° SSW 23:39:34 10° SSE night (unlit)
16 Feb - 20:45:36 10° SSW 20:49:36 15° S 20:53:38 10° SE visible
16 Feb - 22:38:24 10° SW 22:42:24 15° S 22:46:25 10° SSE night (unlit)
